User: anonymous
Location: Unspecified
(0.0000°N, 0.0000°E)
Time: 15:47:47
(UTC+02:00)
Language:

Iridium 4 Rocket - Orbit

View from above orbital plane
View from above orbital plane
View from above satellite
View from above satellite

Ground track
Ground track

The orbit data is extracted from the following two-line orbital elements,

1 24797U 97020F   14109.86314124  .00000765  00000-0  16142-3 0  6443
2 24797 086.8977 055.8450 0227716 203.3866 210.1188 14.43025650891410
Epoch (UTC): 19 April 2014 20:42:55
Eccentricity: 0.0227716
inclination: 86.8977°
perigee height: 586 km
apogee height: 911 km
right ascension of ascending node: 55.8450°
argument of perigee: 203.3866°
revolutions per day: 14.43025650
mean anomaly at epoch: 210.1188°
orbit number at epoch: 89141

The dashed part of the orbit path shows where the satellite is in the earth's shadow,  

DLR